Wind_Speed
7 7 4 6 5 3 17 13 9 8 13 8 2 5 10 8 15 18 22 10 10 19 26 23 20 14 13 13 21 24 24 22 27 26 23 28 31 34 35 37 34 38 33 25
4 9 6 6 5 4 4 1 10 9 8 6 5 12 19 18 16 9 4 9 9 14 1 15 19 15 13 14 19 25 25 28 26 30 31 33 35 37 43 42 41 40 30 28
7 6 6 6 7 7 8 11 7 5 3 9 8 21 12 15 12 11 6 15 9 8 12 6 6 11 13 18 23 26 24 26 30 32 35 38 42 44 50 50 53 47 26 27
2 4 5 5 8 4 2 8 5 3 10 9 15 17 10 19 16 22 14 11 16 10 12 11 11 14 19 24 27 28 23 21 25 30 36 42 42 44 49 50 47 37 32 33
5 4 5 4 4 4 7 4 5 7 3 8 9 15 24 12 10 18 24 18 18 19 13 19 19 22 26 26 28 28 25 28 30 34 38 42 43 41 42 41 46 44 41 39
2 4 7 7 6 5 5 4 7 9 6 6 3 13 22 15 18 29 31 26 25 27 23 23 27 30 29 32 29 30 31 36 37 34 37 34 32 34 37 43 42 44 47 50
7 7 7 7 8 8 10 10 12 15 7 14 6 12 20 25 36 30 37 26 26 29 30 28 32 34 34 36 37 35 34 37 40 41 34 33 36 36 37 42 43 44 45 44
3 14 14 9 7 6 8 6 9 7 8 8 13 7 18 30 24 35 29 31 30 31 31 31 31 36 38 39 39 41 42 42 41 41 40 43 45 46 48 51 44 44 46 46
13 11 14 9 8 7 10 7 8 7 4 7 17 23 32 26 21 31 44 44 39 40 42 41 37 32 36 39 41 42 45 47 47 45 44 46 48 52 52 53 51 50 52 49
9 11 12 14 10 12 8 10 12 6 9 13 12 31 10 21 37 38 43 49 49 48 47 46 45 39 38 41 43 46 47 48 49 49 50 50 52 55 56 55 54 54 52 49
10 10 9 9 11 7 15 13 18 19 19 13 14 15 34 36 45 45 46 46 47 45 46 49 48 44 39 39 42 43 46 48 52 53 54 55 56 56 55 53 52 50 47 44
9 12 11 9 15 20 20 19 17 17 18 21 23 22 32 37 46 47 46 45 45 47 49 46 46 45 43 41 42 43 44 45 47 50 52 53 53 53 49 46 47 46 44 42
13 15 14 11 10 20 18 17 26 27 26 24 22 15 36 40 44 51 49 45 38 40 42 40 38 40 41 41 41 41 41 42 43 44 45 47 48 46 49 47 46 45 45 43
15 18 19 14 14 25 29 28 27 28 30 26 25 26 28 44 54 53 47 50 40 40 39 41 40 40 40 40 41 42 41 42 43 44 45 45 45 44 45 46 44 44 43 45
18 20 20 18 19 19 21 21 25 29 33 33 32 34 38 37 32 36 40 45 43 46 46 45 44 46 46 46 46 45 48 47 48 48 47 47 48 46 46 46 45 42 44 47
19 20 20 19 20 23 23 26 28 30 32 30 29 32 36 38 40 39 40 43 44 44 48 50 50 52 54 55 54 51 51 49 48 47 47 45 47 43 45 46 46 49 49 50
19 20 21 20 20 24 28 30 33 28 28 30 31 35 34 39 42 41 46 45 46 46 49 52 53 53 53 54 56 56 55 55 53 50 50 49 47 48 46 47 44 48 47 42
18 20 21 22 24 24 35 35 23 23 31 33 32 34 38 38 40 42 47 46 47 48 49 51 51 53 54 56 59 60 60 58 57 55 54 49 49 48 47 46 47 38 43 40
18 19 21 24 29 29 31 21 20 25 32 31 32 33 36 37 39 39 46 48 50 51 51 53 55 57 59 58 56 52 49 44 42 39 38 41 39 39 40 39 39 39 38 27
16 19 22 26 29 24 27 21 24 26 32 34 35 36 38 38 40 41 41 43 45 48 51 53 55 56 51 46 48 48 40 38 38 38 38 36 32 27 25 28 31 32 37 32
21 24 29 29 26 28 25 23 23 28 34 38 40 41 42 43 44 46 47 49 50 53 52 50 48 40 41 44 40 31 34 33 39 36 31 29 25 22 20 21 22 25 28 30
23 26 30 28 28 29 25 26 27 30 35 39 40 41 43 45 46 48 50 53 54 52 48 42 38 39 40 40 30 32 29 32 33 29 30 28 20 20 22 17 19 21 18 21
25 24 29 24 27 29 30 30 31 37 40 41 42 43 45 46 48 51 54 54 49 45 39 38 41 41 38 34 30 33 37 29 28 28 25 14 17 17 15 3 7 9 5 7
31 26 23 23 25 25 31 35 36 38 41 42 44 44 46 50 52 55 55 49 46 38 35 39 41 39 36 28 27 27 31 28 31 18 13 13 13 16 10 10 9 14 14 16
28 30 28 26 23 28 34 36 37 40 41 43 44 47 50 54 57 58 55 45 40 37 40 42 40 36 30 21 23 24 23 28 9 7 11 18 19 14 15 11 12 14 15 17
26 30 28 30 27 30 35 37 41 43 44 45 48 50 53 58 59 51 41 38 39 37 35 29 31 28 21 15 18 18 21 20 7 15 12 20 21 18 15 15 16 18 20 21
Wind_Direction
329 341 12 300 302 270 228 248 283 293 278 320 242 282 266 284 238 260 264 266 323 249 250 264 271 279 258 284 305 302 299 282 284 292 286 291 296 294 301 298 294 286 301 317
18 0 352 323 309 291 219 82 265 258 308 7 44 206 221 266 28 326 5 283 261 306 13 274 248 266 261 293 298 304 300 281 275 278 286 286 283 293 293 294 286 275 291 310
99 307 340 345 20 31 336 315 296 256 277 352 171 248 199 87 328 319 317 307 302 310 323 348 251 256 263 289 294 298 297 283 271 273 275 279 286 293 296 297 283 295 295 314
131 341 320 350 12 107 218 322 347 90 95 353 253 281 316 83 300 318 330 300 306 297 299 297 277 261 272 281 293 302 304 286 274 275 274 276 281 284 295 298 294 314 319 321
288 336 327 343 294 308 314 349 51 45 19 173 269 294 303 139 271 299 323 312 296 294 281 288 278 271 275 283 290 295 288 281 271 273 280 279 276 279 289 298 305 310 307 305
342 339 333 339 329 314 324 335 5 17 9 253 213 304 300 282 276 305 311 311 299 293 291 278 277 275 282 284 284 282 280 284 288 290 289 296 294 293 295 297 300 304 306 307
319 321 308 326 2 1 341 331 342 256 239 259 233 309 283 273 284 295 310 304 300 293 291 283 276 280 281 283 287 288 286 286 290 292 294 291 297 292 288 293 296 302 304 305
334 301 298 326 334 308 315 3 315 229 251 319 347 247 257 259 272 292 297 301 303 297 293 292 285 282 279 278 278 281 283 282 283 287 285 284 286 286 287 290 287 292 298 300
179 238 294 307 316 298 297 272 320 281 259 303 276 292 277 288 292 302 300 297 301 300 297 294 288 283 280 278 280 279 279 281 282 282 281 279 280 283 284 289 290 293 297 296
267 263 291 328 323 312 312 335 323 291 286 266 267 320 336 294 302 297 292 293 295 297 297 295 294 292 285 282 281 281 281 281 282 281 280 281 281 283 285 288 289 291 291 291
281 277 254 14 287 247 275 288 260 284 288 292 282 280 276 285 287 286 288 293 300 304 298 297 296 296 290 284 281 279 277 276 277 278 278 279 279 280 282 284 286 287 287 288
290 282 286 287 267 298 304 301 298 297 291 284 290 283 286 286 282 290 294 305 310 301 293 295 297 298 295 291 288 286 285 283 282 282 282 282 284 285 287 287 286 286 287 286
280 285 298 310 281 298 293 291 308 308 307 308 301 309 303 298 291 292 306 305 300 302 302 302 301 299 299 297 295 293 292 290 287 284 283 283 284 284 284 286 291 290 290 289
282 287 292 294 264 277 286 296 302 303 304 300 293 279 253 274 292 306 307 302 309 306 301 307 307 306 303 302 300 297 295 293 291 289 287 285 284 285 285 287 287 289 290 291
279 283 290 296 294 287 289 293 294 297 297 300 299 292 288 295 291 292 299 301 308 311 310 307 308 308 305 302 300 298 296 295 293 291 290 289 289 290 289 290 291 291 290 290
278 285 292 297 299 305 307 297 303 311 308 305 307 296 304 304 303 309 301 303 307 306 308 310 308 307 306 306 304 303 299 297 291 289 287 285 283 282 283 283 285 287 290 291
284 291 295 301 308 312 307 311 314 313 304 301 307 307 308 307 308 309 304 307 307 308 305 304 306 305 303 302 302 302 302 301 303 300 293 289 287 283 281 284 284 286 294 293
289 293 302 308 312 321 308 310 311 301 300 308 317 314 309 310 308 307 306 310 309 305 304 304 303 304 305 306 309 309 306 304 301 299 297 294 292 290 291 289 290 294 279 282
295 301 305 308 314 313 299 341 311 310 305 316 314 314 313 312 311 307 309 308 306 306 304 306 308 308 309 309 307 309 312 312 307 304 308 301 289 281 281 280 281 281 276 287
294 304 306 305 314 310 317 324 319 315 310 318 317 317 314 313 309 306 303 300 300 302 304 306 308 310 313 316 319 315 314 317 317 314 311 304 299 294 288 280 274 280 284 276
308 318 319 320 317 311 326 317 319 317 315 315 316 315 314 312 310 309 306 305 307 309 312 311 312 314 319 325 325 328 325 321 316 318 311 311 312 306 289 284 278 279 279 273
304 319 321 319 311 311 321 316 317 316 316 314 314 313 312 311 309 306 306 308 312 314 313 313 314 318 325 329 324 321 318 332 331 332 318 313 320 313 310 292 298 299 290 274
298 317 316 315 311 316 316 319 318 315 316 317 315 314 312 310 308 307 310 315 316 314 316 316 318 322 326 326 324 332 332 337 328 323 322 343 9 2 2 25 18 319 330 358
302 317 310 307 305 309 311 319 318 317 317 317 316 317 313 311 311 312 316 318 314 319 313 313 317 316 322 325 327 331 328 329 332 331 353 25 31 10 26 20 28 20 3 346
306 312 314 308 308 308 311 317 318 318 319 319 319 315 315 315 314 316 317 315 317 316 313 312 312 311 319 323 326 325 326 334 353 357 360 39 21 43 41 25 10 4 355 347
308 307 309 306 312 311 313 317 318 320 321 320 318 316 315 313 315 316 316 315 314 314 312 320 317 316 318 317 326 320 325 341 301 352 10 38 32 31 25 26 14 360 354 351
Height
5889 5889 5890 5890 5891 5892 5893 5894 5895 5895 5891 5888 5888 5892 5890 5885 5878 5876 5875 5874 5872 5866 5864 5867 5870 5869 5868 5868 5864 5863 5862 5862 5858 5855 5857 5855 5851 5849 5845 5838 5836 5834 5830 5828
5889 5889 5890 5889 5889 5889 5890 5892 5892 5892 5888 5887 5889 5886 5879 5877 5874 5873 5872 5869 5869 5865 5816 5862 5865 5866 5866 5865 5863 5859 5857 5855 5854 5852 5850 5848 5845 5845 5837 5833 5823 5819 5826 5824
5889 5890 5890 5889 5888 5889 5891 5888 5887 5886 5885 5885 5887 5879 5880 5873 5878 5873 5872 5867 5867 5866 5863 5862 5863 5864 5863 5861 5859 5856 5852 5849 5847 5847 5844 5840 5838 5839 5832 5831 5817 5817 5814 5814
5890 5890 5890 5888 5889 5889 5892 5886 5885 5884 5883 5886 5885 5883 5879 5872 5878 5873 5872 5869 5865 5865 5864 5863 5863 5861 5859 5857 5854 5851 5848 5845 5843 5841 5838 5834 5834 5833 5830 5819 5809 5808 5805 5801
5889 5889 5889 5888 5888 5887 5887 5886 5885 5885 5884 5885 5886 5882 5880 5864 5876 5872 5870 5869 5864 5861 5862 5860 5859 5857 5854 5853 5850 5847 5844 5841 5837 5835 5830 5826 5822 5824 5823 5818 5810 5801 5797 5797
5889 5890 5889 5888 5887 5887 5886 5886 5884 5883 5884 5886 5886 5884 5875 5874 5873 5872 5869 5867 5863 5858 5858 5858 5854 5850 5852 5846 5845 5841 5837 5834 5831 5828 5825 5822 5817 5817 5813 5811 5804 5797 5789 5787
5889 5889 5888 5888 5887 5886 5886 5885 5885 5881 5879 5881 5885 5886 5875 5870 5870 5867 5867 5864 5859 5855 5852 5853 5850 5846 5845 5841 5837 5833 5831 5829 5825 5822 5818 5811 5810 5806 5803 5802 5797 5794 5789 5785
5895 5890 5888 5888 5888 5887 5885 5885 5884 5882 5882 5884 5883 5881 5870 5867 5867 5863 5861 5859 5856 5850 5847 5846 5846 5841 5838 5835 5832 5827 5824 5822 5819 5816 5813 5808 5804 5800 5797 5794 5789 5788 5784 5780
5888 5891 5886 5886 5885 5886 5883 5882 5883 5882 5883 5884 5880 5873 5867 5862 5865 5861 5855 5851 5850 5845 5840 5837 5835 5836 5831 5828 5824 5821 5816 5811 5809 5808 5805 5802 5799 5793 5788 5785 5782 5779 5775 5772
5886 5886 5885 5885 5884 5882 5882 5881 5881 5881 5880 5879 5879 5865 5855 5859 5856 5856 5851 5845 5842 5839 5832 5827 5823 5825 5823 5819 5816 5812 5808 5803 5799 5796 5793 5790 5787 5783 5779 5775 5772 5769 5764 5760
5883 5884 5885 5884 5883 5882 5880 5879 5876 5876 5877 5874 5874 5873 5860 5858 5848 5849 5845 5840 5833 5831 5824 5815 5812 5811 5810 5807 5803 5801 5797 5794 5789 5785 5781 5777 5773 5770 5767 5764 5759 5756 5752 5748
5880 5880 5880 5882 5879 5876 5876 5873 5872 5871 5872 5869 5868 5868 5860 5852 5841 5838 5838 5835 5829 5822 5813 5810 5804 5799 5796 5794 5791 5788 5784 5782 5778 5774 5770 5765 5760 5756 5754 5751 5747 5744 5739 5735
5876 5876 5877 5877 5876 5871 5870 5869 5867 5865 5863 5863 5861 5864 5847 5839 5835 5829 5828 5825 5820 5811 5803 5800 5798 5793 5788 5785 5781 5775 5773 5769 5764 5761 5757 5753 5749 5745 5740 5737 5734 5731 5727 5725
5873 5872 5873 5875 5873 5868 5866 5865 5864 5860 5857 5855 5855 5852 5851 5835 5824 5820 5817 5806 5809 5804 5796 5791 5787 5784 5779 5777 5772 5766 5762 5756 5752 5748 5744 5741 5737 5733 5728 5725 5723 5720 5716 5712
5869 5869 5869 5869 5868 5867 5865 5863 5860 5856 5852 5848 5846 5840 5833 5828 5826 5820 5812 5803 5800 5793 5788 5783 5778 5772 5767 5762 5758 5754 5749 5744 5738 5734 5731 5728 5724 5721 5716 5713 5709 5707 5705 5701
5866 5865 5865 5864 5862 5861 5859 5856 5854 5849 5845 5840 5837 5830 5825 5818 5812 5810 5803 5796 5792 5785 5778 5771 5766 5761 5754 5749 5743 5739 5734 5730 5726 5722 5717 5714 5711 5709 5705 5701 5698 5695 5692 5689
5862 5861 5860 5859 5858 5855 5851 5849 5845 5842 5836 5832 5830 5824 5819 5812 5807 5801 5790 5788 5782 5777 5769 5762 5756 5750 5744 5737 5731 5725 5720 5715 5711 5707 5703 5700 5698 5694 5692 5687 5686 5683 5680 5677
5858 5857 5855 5854 5853 5851 5843 5843 5839 5835 5828 5824 5823 5817 5811 5805 5800 5791 5783 5778 5772 5766 5760 5753 5746 5741 5734 5728 5722 5715 5708 5702 5695 5690 5686 5682 5681 5678 5676 5675 5674 5674 5665 5663
5854 5853 5852 5850 5848 5846 5835 5837 5834 5830 5821 5822 5817 5811 5805 5798 5792 5786 5774 5768 5761 5755 5748 5741 5735 5728 5722 5716 5708 5702 5694 5687 5680 5676 5671 5666 5663 5662 5660 5660 5660 5658 5656 5657
5851 5849 5849 5846 5841 5836 5834 5831 5827 5824 5819 5812 5808 5802 5796 5790 5783 5776 5770 5763 5756 5748 5741 5734 5726 5719 5712 5706 5701 5692 5684 5678 5673 5667 5662 5656 5652 5648 5647 5646 5646 5646 5645 5646
5845 5843 5841 5838 5835 5829 5829 5826 5824 5820 5816 5807 5800 5793 5786 5780 5773 5766 5758 5751 5744 5737 5729 5722 5715 5710 5704 5698 5691 5684 5678 5672 5666 5660 5654 5649 5644 5640 5638 5638 5638 5636 5636 5636
5841 5840 5836 5832 5829 5826 5824 5821 5820 5814 5808 5800 5793 5786 5779 5771 5764 5755 5748 5741 5734 5726 5719 5712 5706 5702 5697 5690 5685 5678 5671 5666 5660 5655 5649 5642 5638 5635 5633 5633 5633 5630 5627 5628
5838 5838 5833 5831 5824 5819 5816 5815 5812 5805 5799 5793 5786 5778 5770 5763 5754 5746 5738 5732 5724 5716 5711 5705 5700 5696 5690 5685 5679 5676 5668 5662 5658 5652 5646 5641 5637 5634 5630 5629 5630 5628 5626 5624
5830 5831 5829 5825 5822 5818 5812 5808 5804 5798 5791 5785 5777 5770 5761 5752 5744 5735 5727 5721 5714 5710 5704 5698 5693 5690 5685 5681 5677 5670 5667 5662 5656 5650 5646 5641 5638 5635 5633 5632 5631 5629 5627 5625
5828 5824 5821 5819 5817 5813 5806 5802 5797 5791 5784 5776 5768 5759 5750 5741 5733 5724 5718 5712 5708 5703 5697 5691 5686 5683 5680 5678 5674 5670 5666 5661 5656 5651 5647 5643 5638 5637 5635 5634 5632 5629 5627 5625
5823 5819 5816 5811 5811 5808 5803 5796 5789 5782 5775 5767 5758 5750 5742 5732 5723 5715 5708 5704 5699 5694 5689 5685 5680 5677 5676 5676 5673 5668 5665 5661 5657 5652 5648 5646 5643 5640 5638 5635 5633 5630 5627 5623